Вернуться в каталог

FLOCK 4Q 22

АктивенНаукаPO
NORAD 58306·PAYLOAD·🇺🇸 United States

Запущен Nov 11, 2023 с Vandenberg Space Force Base

Loading…

Ближайшие Пролёты (ближайшие 24 часа)

TLE

СвежийSource: Space-Track

Эпоха: Sep 14, 2026, 05:29 UTC

1 58306U 23174BC  26257.22903214  .00822068  32310-3  15626-2 0  9994
2 58306  97.3627 354.9038 0008177 262.3567  97.6783 16.00685551159871

Отслеживайте FLOCK 4Q 22 в реальном времени с AllMySat

Download on the App Store